Regional Weather Roundup
Issued by NWS State College, PA

Home | Current Version | Previous Version | Text Only | Print | Product List | Glossary Off
Versions: 1 2 3 4 5 6 7 8 9 10 11 12 13 14 15 16 17 18 19 20 21 22 23 24 25 26 27 28 29 30 31 32 33 34 35 36 37 38 39 40 41 42 43 44 45 46 47 48 49 50

000
ASUS41 KCTP 281103
RWRCTP

REGIONAL WEATHER ROUNDUP
NATIONAL WEATHER SERVICE STATE COLLEGE PA
600 AM EST SAT FEB 28 2015

Note: "fair" indicates few or no clouds below 12,000 feet with no
significant weather and/or obstructions to visibility.

* = STATION THAT DOES NOT REPORT PRECIPITATION /E.G. RAIN...SNOW...ETC/
    THUNDER OR FOG.

PAZ002>004-007>009-013>016-020>023-029>032-281200-
WESTERN PENNSYLVANIA

CITY           SKY/WX    TMP DP  RH WIND       PRES   REMARKS
ERIE           PTCLDY    -2 -10  69 S7        30.74R WCI -15
MEADVILLE        N/A      0  -5  79 S6        30.67R WCI -12
FRANKLIN*      MOCLDY    -9 -17  70 S3        30.68R
NEW CASTLE     FAIR      -8 -12  83 CALM      30.74R
BEAVER COUNTY  NOT AVBL
BUTLER*        PTCLDY    -9 -11  92 NE3       30.71R
PITTSBURGH INT MOCLDY     0  -5  79 CALM      30.70R
PITTSBURGH     PTCLDY     6  -2  69 CALM      30.69R
INDIANA*       CLEAR     -9 -15  77 E3        30.74R
LATROBE        PTCLDY     0  -4  85 CALM      30.73R
WASHINGTON CO* CLEAR      0  -4  85 CALM      30.70S
$$

PAZ004>006-010>012-017>019-024>028-033>037-041-042-045-046-049>053-281200-
CENTRAL PENNSYLVANIA

CITY           SKY/WX    TMP DP  RH WIND       PRES   REMARKS
BRADFORD       PTCLDY   -18 -24  74 CALM      30.58R
DUBOIS         MOCLDY    -3  -7  82 S3        30.64R
CLEARFIELD     MOCLDY    -7 -14  71 CALM      30.69R
JOHNSTOWN      PTCLDY     3  -6  66 CALM      30.58R
ALTOONA        PTCLDY     7  -5  57 W5        30.68R WCI  -2
STATE COLLEGE  CLEAR      1  -6  71 CALM      30.70R
WILLIAMSPORT   CLEAR      6  -5  60 CALM      30.78R
SELINSGROVE    CLEAR      2  -4  76 N3        30.77R
FT INDIANTOWN  CLEAR      7  -4  59 CALM      30.76R
CAPITAL CITY   CLEAR      9  -1  64 CALM      30.78R
HARRISBURG     PTCLDY    10   7  87 NW5       30.78R WCI   2
YORK           CLEAR      1  -5  75 W3        30.76R
$$

PAZ038>040-043-044-047-048-054-055-060>062-067>071-281200-
EASTERN PENNSYLVANIA

CITY           SKY/WX    TMP DP  RH WIND       PRES   REMARKS
SCRANTON       PTCLDY     6  -7  54 NW9       30.70R WCI  -8
MOUNT POCONO     N/A    N/A N/A N/A MISG      30.57R
ALLENTOWN      CLEAR      9  -6  50 NW7       30.76R WCI  -2
QUAKERTOWN*    MOSUNNY    9  -2  61 NW6       30.74R WCI  -1
READING        CLEAR      9  -6  50 NW6       30.76R WCI  -1
LANCASTER      CLEAR     10  -2  58 NW5       30.76R WCI   2
COATESVILLE    SUNNY     14   1  57 N6        30.72R WCI   5
POTTSTOWN      CLEAR      7  -1  70 CALM      30.78R
BLUE BELL      CLEAR     16   1  53 NW3       30.75R
DOYLESTOWN     CLEAR      9  -2  61 NW5       30.74R WCI   1
WILLOW GROVE   NOT AVBL
NORTH PHILA    CLEAR     16  -2  45 N6        30.78R WCI   7
PHILADELPHIA   PTCLDY    17  -2  43 N12       30.79R WCI   4
$$


USA.gov is the U.S. government's official web portal to all federal, state and local government web resources and services.